PST,Max TemperatureF,Mean TemperatureF,Min TemperatureF,Max Dew PointF,MeanDew PointF,Min DewpointF,Max Humidity, Mean Humidity, Min Humidity, Max Sea Level PressureIn, Mean Sea Level PressureIn, Min Sea Level PressureIn, Max VisibilityMiles, Mean VisibilityMiles, Min VisibilityMiles, Max Wind SpeedMPH, Mean Wind SpeedMPH, Max Gust SpeedMPH,PrecipitationIn, CloudCover, Events, WindDirDegrees
2012-1-1,46,42,39,36,30,23,75,63,52,30.32,30.22,30.03,10,10,10,9,5,20,0.00,1,Rain,59
2012-1-2,55,48,41,46,38,34,87,71,47,30.02,29.90,29.77,10,10,2,20,5,31,0.00,2,Rain,160
2012-1-3,51,48,46,46,43,41,87,79,71,30.22,30.16,30.10,10,10,6,15,9,26,0.00,3,Rain,178
2012-1-4,55,52,48,46,44,39,93,81,58,30.06,29.96,29.88,10,8,2,21,11,29,0.13,5,Rain,179
2012-1-5,48,44,41,41,38,32,93,79,61,30.31,30.22,30.05,10,10,3,16,11,29,0.00,3,Rain,195
2012-1-6,41,39,37,37,36,34,93,85,76,30.32,30.28,30.24,10,10,8,12,6,,0.00,3,Rain,183
2012-1-7,44,42,39,39,37,36,93,84,81,30.43,30.37,30.32,10,10,5,12,5,20,0.00,7,Rain,162
2012-1-8,50,47,44,43,39,37,87,77,66,30.34,30.27,30.20,10,10,4,16,7,23,0.00,6,,174
2012-1-9,50,47,44,43,41,39,87,77,66,30.24,30.19,30.14,10,10,8,14,6,18,0.00,4,Rain,192
2012-1-10,42,40,39,36,29,19,81,65,45,30.56,30.44,30.27,10,10,10,14,8,21,0.00,2,,342
2012-1-11,39,36,32,32,23,16,81,56,41,30.55,30.49,30.42,10,10,10,14,7,22,0.00,0,,37
2012-1-12,41,37,33,32,25,19,87,63,52,30.41,30.34,30.28,10,10,10,9,4,,0.00,0,,62
2012-1-13,39,34,28,36,31,28,100,90,75,30.33,30.24,30.08,10,9,5,7,1,,0.00,2,,22
2012-1-14,41,36,32,36,32,27,100,85,57,30.03,29.90,29.82,10,8,2,15,8,22,0.12,4,Rain-Snow,200
2012-1-15,35,30,26,32,28,27,100,88,70,30.03,29.99,29.94,10,9,0,10,3,16,0.06,3,Snow,347
2012-1-16,35,30,26,32,30,25,100,91,81,30.08,30.01,29.91,10,8,2,13,4,,0.00,6,Snow,189
2012-1-17,35,32,28,32,29,23,100,88,60,29.95,29.83,29.75,10,10,2,12,6,,0.01,3,Snow,195
2012-1-18,26,22,17,25,16,10,100,81,63,29.98,29.84,29.75,10,7,0,15,9,30,0.01,6,Snow,61
2012-1-19,26,22,19,19,16,12,86,77,69,29.84,29.71,29.62,10,10,10,14,9,20,0.00,5,,59
2012-1-20,50,38,26,45,33,23,100,90,66,29.77,29.43,28.99,10,8,2,15,5,32,0.03,7,Rain-Snow,108
2012-1-21,48,44,39,45,38,32,93,79,70,29.72,29.31,28.93,10,10,5,18,13,29,0.00,2,Rain,204
2012-1-22,44,42,39,39,35,28,93,75,53,29.83,29.55,29.29,10,10,5,22,11,37,0.00,3,Rain,169
2012-1-23,46,42,37,37,36,32,93,79,66,29.97,29.90,29.75,10,10,8,16,9,22,0.00,1,,185
2012-1-24,50,46,41,46,37,30,93,75,57,29.93,29.70,29.47,10,9,3,31,13,43,0.01,4,Rain,183
2012-1-25,46,42,39,39,36,32,100,80,57,30.19,30.08,29.76,10,9,2,17,9,32,0.01,2,Rain,202
2012-1-26,46,39,32,41,33,27,100,74,46,30.54,30.22,29.84,10,10,8,17,7,29,0.00,1,,227
2012-1-27,44,37,30,34,31,28,100,77,61,30.59,30.54,30.48,10,10,10,10,5,16,0.00,3,,185
2012-1-28,50,44,37,36,32,25,93,73,40,30.48,30.32,30.06,10,10,8,10,5,24,0.00,5,Rain,125
2012-1-29,50,46,42,46,43,30,100,90,47,29.98,29.85,29.73,10,8,3,17,11,24,0.11,6,Rain,192
2012-1-30,46,44,41,45,40,37,100,84,76,30.03,29.95,29.77,10,10,10,10,7,20,0.00,3,,185
2012-1-31,48,45,42,41,39,37,87,77,66,30.02,29.96,29.87,10,10,6,13,9,23,0.00,4,Rain,180